Probability
0 0 0 0 0 0 0 0 0 0 0 0 0 0 0 0 0 0 0 0 0 0 0 0 0 0 0 0 0 0 0 0 0 0 0 0 0 0 0 0 0 0 0 0
0 0 0 0 0 0 0 0 0 0 0 0 0 0 0 0 0 0 0 0 0 0 0 0 0 0 0 0 0 0 0 0 0 0 0 0 0 0 0 0 0 0 0 0
0 0 0 0 0 0 0 0 0 0 0 0 0 0 0 0 0 0 0 0 0 0 0 0 0 0 0 0 0 0 0 0 0 0 0 0 0 0 0 0 0 0 0 0
0 0 0 0 0 0 0 0 0 0 0 0 0 0 0 0 0 0 0 0 0 0 0 0 0 0 0 0 0 0 0 0 0 0 0 0 0 0 0 0 0 0 0 0
0 0 0 0 0 0 0 0 0 0 0 0 0 0 0 0 0 0 0 0 0 0 0 0 0 0 0 0 0 0 0 0 0 0 0 0 0 0 0 0 0 0 0 0
0 0 0 0 0 0 0 0 0 0 0 0 0 0 0 0 0 0 0 0 0 0 0 0 0 0 0 0 0 0 0 0 0 0 0 0 0 0 0 0 0 0 0 0
0 0 0 0 0 0 0 0 0 0 0 0 0 0 0 0 0 0 0 0 0 0 0 0 0 0 0 0 0 0 0 0 0 0 0 0 0 0 0 0 0 0 0 0
0 0 0 0 0 0 0 0 0 0 0 0 0 0 0 0 0 0 0 0 0 0 0 0 0 0 0 0 0 0 0 0 0 0 0 0 0 0 0 0 0 0 0 0
0 0 0 0 0 0 0 0 0 0 0 0 0 0 0 0 0 0 0 0 0 0 0 0 0 0 0 0 0 0 0 0 0 0 0 0 0 0 0 0 0 0 0 0
0 0 0 0 0 0 0 0 0 0 0 0 0 0 0 0 0 0 0 0 0 0 0 0 0 0 0 0 0 0 0 0 0 0 0 0 0 0 0 0 0 0 0 0
0 0 0 0 0 0 0 0 0 0 0 0 0 0 0 0 0 0 0 0 0 0 0 0 0 0 0 0 0 0 0 0 0 0 0 0 0 0 0 0 0 0 0 0
0 0 0 0 0 0 0 0 0 0 0 0 0 0 0 0 0 0 0 0 0 0 0 0 0 0 0 0 0 0 0 0 0 0 0 0 0 0 0 0 0 0 0 0
0 0 0 0 0 0 0 0 0 0 0 0 0 0 0 0 0 0 0 0 0 0 0 0 0 0 0 0 0 0 0 0 0 0 0 0 0 0 0 0 0 0 0 0
0 0 0 0 0 0 0 0 0 0 0 0 0 0 0 0 0 0 0 0 0 0 0 0 0 0 0 0 0 0 0 0 0 0 0 0 0 0 0 0 0 0 0 0
0 0 0 0 0 0 0 0 0 0 0 0 0 0 0 0 0 0 0 0 0 0 0 0 0 0 0 0 0 0 0 0 0 0 0 0 0 0 0 0 0 0 0 0
0 0 0 0 0 0 0 0 0 0 0 0 0 0 0 0 0 0 0 0 0 0 0 0 0 0 0 0 0 0 0 0 0 0 0 0 0 0 0 0 0 0 0 0
0 0 0 0 0 0 0 0 0 0 0 0 0 0 0 0 0 0 0 0 0 0 0 0 0 0 0 0 0 0 0 0 0 0 0 0 0 0 0 0 0 0 0 0
0 0 0 0 0 0 0 0 0 0 0 0 0 0 0 0 0 0 0 0 0 0 0 0 0 0 0 0 0 0 0 0 0 0 0 0 0 0 0 0 0 0 0 0
0 0 0 0 0 0 0 0 0 0 0 0 0 0 0 0 0 0 0 0 0 0 0 0 0 0 0 0 0 0 0 0 0 0 0 0 0 0 0 0 0 0 0 0
0 0 0 0 0 0 0 0 0 0 0 0 0 0 0 0 0 0 0 0 0 0 0 0 0 0 0 0 0 0 0 0 0 0 0 0 0 0 0 0 0 0 0 0
0 0 0 0 0 0 0 0 0 0 0 0 0 0 0 0 0 0 0 0 0 0 0 0 0 0 0 0 0 0 0 0 0 0 0 0 0 0 0 0 0 0 0 0
0 0 0 0 0 0 0 0 0 0 0 0 0 0 0 0 0 0 0 0 0 0 0 0 0 0 0 0 0 0 0 0 0 0 0 0 0 0 0 0 0 0 0 0
0 0 0 0 0 0 0 0 0 0 0 0 0 0 0 0 0 0 0 0 0 0 0 0 0 0 0 0 0 0 0 0 0 0 0 0 0 0 0 0 0 0 0 0
0 0 0 0 0 0 0 0 0 0 0 0 0 0 0 0 0 0 0 0 0 0 0 0 0 0 0 0 0 0 0 0 0 0 0 0 0 0 0 0 0 0 0 0
0 0 0 0 0 0 0 0 0 0 0 0 0 0 0 0 0 0 0 0 0 0 0 0 0 0 0 0 0 0 0 0 0 0 0 0 0 0 0 0 0 0 0 0
0 0 0 0 0 0 0 0 0 0 0 0 0 0 0 0 0 0 0 0 0 0 0 0 0 0 0 0 0 0 0 0 0 0 0 0 0 0 0 0 0 0 0 0
Height
5716 5715 5714 5713 5712 5711 5710 5709 5709 5708 5707 5707 5707 5707 5707 5707 5707 5709 5711 5713 5715 5718 5719 5721 5723 5726 5728 5731 5734 5737 5740 5743 5747 5750 5754 5758 5761 5765 5767 5770 5772 5775 5777 5779
5715 5713 5712 5710 5709 5708 5707 5706 5706 5705 5704 5703 5703 5703 5703 5703 5703 5705 5706 5708 5711 5713 5714 5716 5718 5720 5723 5725 5728 5731 5734 5737 5741 5744 5748 5751 5754 5758 5761 5763 5765 5768 5770 5771
5712 5712 5709 5708 5707 5706 5705 5704 5703 5702 5701 5700 5700 5700 5700 5700 5699 5701 5702 5704 5706 5708 5710 5712 5713 5715 5717 5720 5723 5725 5727 5731 5734 5738 5742 5745 5748 5751 5754 5756 5759 5760 5762 5764
5710 5709 5707 5706 5705 5704 5703 5702 5700 5699 5698 5697 5697 5695 5697 5696 5696 5697 5699 5701 5703 5705 5706 5708 5709 5711 5713 5715 5717 5720 5722 5725 5728 5732 5736 5739 5742 5744 5746 5749 5751 5752 5754 5756
5709 5707 5705 5704 5703 5702 5700 5699 5698 5697 5695 5694 5693 5692 5694 5692 5693 5695 5696 5697 5699 5701 5702 5704 5705 5706 5708 5710 5712 5714 5717 5720 5723 5726 5730 5733 5735 5737 5739 5742 5743 5745 5747 5748
5707 5705 5703 5702 5701 5699 5698 5697 5696 5694 5693 5692 5691 5689 5690 5690 5691 5692 5693 5694 5695 5697 5698 5699 5700 5701 5703 5705 5707 5709 5711 5714 5717 5720 5723 5725 5728 5730 5733 5735 5736 5737 5738 5740
5705 5704 5702 5700 5699 5697 5696 5695 5693 5691 5689 5689 5689 5686 5687 5688 5688 5688 5689 5690 5691 5692 5693 5694 5695 5697 5698 5700 5701 5703 5705 5708 5711 5713 5716 5718 5720 5722 5724 5726 5728 5729 5730 5731
5703 5702 5700 5698 5697 5695 5694 5692 5691 5689 5687 5687 5686 5684 5686 5686 5685 5685 5686 5686 5687 5688 5689 5690 5691 5692 5693 5695 5696 5698 5699 5702 5704 5706 5709 5711 5713 5715 5717 5719 5720 5721 5721 5722
5701 5700 5699 5696 5694 5693 5691 5690 5689 5687 5685 5684 5684 5684 5684 5683 5682 5682 5682 5682 5683 5684 5684 5685 5686 5687 5688 5690 5691 5692 5694 5695 5697 5699 5701 5704 5706 5708 5709 5710 5711 5711 5712 5712
5698 5697 5696 5694 5693 5691 5690 5688 5686 5684 5682 5681 5682 5681 5682 5681 5679 5679 5678 5678 5679 5679 5680 5681 5682 5682 5683 5684 5685 5686 5688 5689 5691 5692 5694 5696 5697 5699 5700 5701 5701 5702 5702 5703
5695 5694 5693 5692 5690 5688 5688 5686 5683 5682 5680 5679 5678 5681 5679 5678 5676 5675 5675 5674 5674 5675 5675 5675 5676 5677 5678 5678 5679 5680 5682 5683 5684 5685 5686 5687 5689 5690 5691 5691 5692 5692 5692 5692
5691 5690 5689 5688 5687 5685 5684 5682 5681 5680 5678 5676 5675 5679 5675 5674 5672 5671 5671 5670 5670 5670 5670 5670 5671 5671 5672 5673 5674 5674 5675 5676 5677 5678 5679 5679 5680 5681 5682 5682 5682 5682 5682 5681
5687 5686 5685 5684 5685 5682 5680 5679 5677 5675 5674 5672 5671 5674 5671 5670 5668 5667 5666 5665 5665 5665 5665 5665 5665 5665 5666 5666 5667 5667 5668 5668 5669 5670 5670 5671 5671 5672 5672 5672 5671 5671 5671 5670
5682 5681 5680 5679 5677 5676 5675 5674 5672 5670 5669 5668 5667 5668 5667 5664 5663 5662 5661 5660 5660 5659 5659 5659 5659 5659 5659 5658 5659 5659 5659 5660 5660 5661 5661 5662 5662 5662 5662 5662 5661 5661 5660 5659
5675 5675 5674 5674 5672 5671 5670 5669 5667 5665 5664 5663 5663 5662 5661 5659 5657 5656 5655 5654 5653 5653 5652 5652 5652 5652 5651 5651 5651 5650 5651 5651 5651 5651 5651 5651 5651 5651 5651 5651 5650 5649 5648 5647
5668 5668 5668 5668 5666 5664 5663 5663 5661 5660 5658 5657 5656 5656 5655 5653 5651 5650 5649 5647 5647 5646 5645 5644 5644 5644 5643 5643 5642 5642 5642 5642 5641 5641 5641 5641 5641 5641 5640 5639 5639 5637 5636 5635
5661 5660 5659 5660 5659 5657 5657 5657 5655 5654 5652 5651 5649 5650 5647 5646 5644 5643 5642 5640 5639 5638 5637 5636 5636 5635 5635 5634 5633 5633 5633 5632 5632 5631 5631 5630 5630 5629 5629 5628 5626 5625 5624 5623
5653 5652 5650 5650 5651 5649 5652 5649 5648 5646 5645 5643 5642 5641 5639 5638 5637 5635 5634 5633 5631 5630 5629 5628 5627 5627 5626 5625 5624 5624 5623 5622 5622 5621 5620 5619 5619 5618 5616 5615 5614 5613 5611 5610
5644 5643 5641 5641 5640 5640 5643 5641 5639 5637 5637 5635 5633 5632 5631 5629 5628 5627 5625 5624 5623 5622 5620 5619 5618 5617 5616 5615 5614 5613 5613 5612 5611 5610 5609 5608 5606 5605 5604 5603 5601 5600 5598 5596
5635 5634 5633 5631 5630 5630 5634 5631 5629 5628 5627 5627 5624 5623 5622 5621 5620 5620 5617 5615 5614 5612 5611 5610 5608 5607 5606 5605 5603 5603 5602 5601 5599 5598 5597 5595 5594 5593 5591 5590 5588 5586 5585 5583
5624 5623 5623 5622 5620 5621 5622 5620 5619 5619 5619 5616 5615 5613 5612 5611 5610 5609 5607 5606 5604 5602 5601 5599 5598 5597 5595 5594 5592 5591 5590 5589 5587 5586 5585 5583 5582 5580 5578 5577 5575 5573 5571 5569
5612 5612 5612 5611 5610 5613 5611 5610 5609 5608 5606 5605 5604 5603 5601 5600 5598 5597 5596 5595 5593 5592 5590 5588 5587 5586 5584 5582 5581 5580 5579 5577 5576 5574 5573 5571 5569 5567 5565 5564 5562 5559 5557 5555
5601 5602 5601 5601 5602 5601 5600 5598 5597 5596 5595 5594 5592 5591 5590 5589 5587 5586 5585 5583 5582 5580 5578 5577 5575 5574 5572 5570 5568 5567 5566 5564 5563 5561 5560 5558 5556 5554 5552 5550 5548 5546 5543 5541
5589 5589 5588 5589 5589 5588 5587 5586 5585 5584 5583 5581 5580 5579 5578 5577 5575 5574 5572 5570 5569 5567 5565 5564 5562 5560 5559 5557 5555 5554 5552 5550 5549 5548 5546 5544 5542 5540 5538 5536 5534 5532 5529 5527
5576 5576 5575 5576 5577 5576 5575 5574 5573 5571 5570 5569 5568 5567 5566 5564 5563 5561 5559 5557 5555 5554 5552 5550 5548 5547 5545 5543 5541 5539 5537 5536 5535 5533 5531 5530 5528 5526 5524 5522 5520 5517 5515 5513
5564 5563 5562 5563 5563 5562 5563 5561 5560 5559 5558 5557 5556 5555 5553 5551 5549 5547 5545 5543 5541 5539 5537 5536 5534 5532 5530 5529 5527 5525 5523 5521 5520 5519 5517 5515 5513 5511 5509 5507 5506 5503 5501 5498
Wind_Speed
12 12 13 13 13 14 15 16 17 17 17 18 19 20 21 23 24 25 25 26 27 28 29 29 30 31 30 32 33 35 36 36 36 36 34 34 36 36 34 35 34 35 35 35
12 12 13 13 13 13 14 15 16 15 16 17 17 18 19 21 23 24 24 24 24 26 27 28 30 31 30 30 32 34 35 38 38 38 36 35 36 36 35 34 35 35 35 35
13 12 13 13 12 13 14 14 15 15 15 17 17 17 19 20 21 22 23 23 23 24 25 25 27 29 30 29 31 33 34 36 38 38 36 34 35 37 37 35 35 36 36 37
13 13 13 13 12 13 13 14 14 15 15 16 17 18 17 18 19 20 21 22 22 23 24 24 25 26 28 30 31 31 33 35 36 36 35 34 35 36 37 36 35 37 36 36
14 13 12 12 12 13 13 14 14 14 15 16 17 18 16 17 18 18 19 20 21 21 23 25 25 25 26 29 30 31 33 35 36 35 35 34 34 35 36 37 35 36 37 36
14 13 13 12 13 13 13 14 15 15 16 16 16 17 17 16 16 18 18 19 20 20 22 24 25 25 26 27 28 29 32 34 35 34 34 35 35 36 36 37 36 36 37 38
14 14 13 13 13 14 14 15 15 16 16 16 16 17 17 15 16 17 18 19 20 21 22 24 26 26 26 27 28 29 30 32 34 35 35 35 36 37 37 38 38 38 37 38
14 14 14 14 14 14 14 15 16 16 17 16 15 16 16 15 16 17 18 19 21 21 23 24 25 26 27 27 27 28 30 31 33 34 35 35 35 36 37 38 39 40 41 41
15 15 15 15 15 15 15 14 15 16 17 17 16 16 16 16 17 17 19 20 21 23 23 24 25 26 27 29 29 29 30 31 32 34 34 34 35 36 37 38 39 40 42 42
17 17 17 16 15 15 15 15 16 16 17 17 17 17 16 16 17 18 19 20 21 23 24 24 25 26 27 28 29 29 30 31 32 33 34 35 36 37 37 39 40 41 42 42
18 18 17 17 16 16 16 16 16 17 18 18 19 18 17 17 18 18 18 19 21 23 24 25 26 27 27 27 29 29 29 30 32 33 35 36 37 38 39 40 41 41 42 43
20 20 18 18 18 18 17 18 18 18 19 20 20 19 18 18 18 18 18 19 21 23 24 26 27 27 29 29 30 30 31 32 33 34 35 36 37 39 40 41 41 42 42 43
22 22 21 20 20 20 19 19 19 20 20 21 22 20 19 19 19 19 19 20 22 23 24 26 27 28 30 31 32 33 34 34 34 35 37 37 38 39 40 41 42 42 43 44
25 24 23 23 23 22 21 21 21 22 22 22 22 21 21 21 22 22 22 22 23 25 26 27 28 30 31 32 33 34 35 35 36 37 38 39 39 40 41 42 43 43 44 45
27 26 25 25 25 24 24 23 23 23 23 24 23 23 23 24 24 24 24 24 25 26 27 28 29 30 32 33 34 34 36 37 38 38 39 39 40 41 42 43 44 44 45 46
29 29 28 27 27 27 26 26 26 25 25 25 25 24 25 26 26 26 27 27 28 29 29 30 31 32 32 33 34 35 36 37 39 39 40 41 41 42 43 44 44 45 45 46
32 32 31 30 30 30 29 28 28 28 28 28 28 26 27 27 28 28 29 29 30 30 31 32 32 33 34 34 35 36 37 38 39 40 41 42 43 43 44 45 45 46 47 48
33 32 33 33 32 32 31 30 30 30 30 30 30 29 29 29 30 30 31 31 31 31 31 33 33 34 35 36 36 37 38 39 40 41 42 43 43 44 45 46 46 47 48 49
35 34 35 34 34 34 32 32 32 32 32 32 32 31 31 32 32 32 32 32 32 33 33 34 35 36 37 37 38 39 39 40 41 42 42 43 44 45 46 46 47 48 48 49
37 37 37 37 37 37 35 34 34 35 35 34 34 34 35 35 34 34 33 34 34 34 35 35 36 37 38 39 40 40 40 41 42 43 44 44 45 46 47 47 48 48 49 49
39 39 38 38 39 39 38 37 36 36 36 36 36 37 37 37 37 36 36 36 36 36 37 37 38 39 39 39 40 41 41 42 44 45 45 45 46 46 47 48 48 49 49 50
40 40 40 39 39 39 38 38 38 38 38 38 39 39 39 39 39 39 39 39 39 39 39 40 40 41 42 41 42 42 42 44 45 45 45 46 46 47 47 48 49 50 51 51
42 41 41 40 40 40 39 40 40 40 41 41 42 42 41 41 41 41 41 41 41 42 42 43 43 43 43 43 44 44 44 45 45 45 46 46 46 47 47 48 48 49 50 51
43 42 42 42 41 40 40 41 42 42 43 43 43 43 43 44 44 44 44 43 43 44 45 46 46 46 46 46 46 46 46 47 47 47 47 48 48 48 48 48 49 49 50 50
44 44 44 44 43 44 43 43 43 44 44 44 44 45 45 46 46 45 45 45 46 46 46 47 47 48 48 48 48 47 47 48 48 48 48 48 48 49 49 49 49 49 49 49
44 44 45 45 44 45 45 45 46 46 46 46 47 46 47 47 47 47 47 47 47 47 48 48 48 48 48 48 48 48 48 48 48 48 48 48 48 48 48 48 48 48 48 49
Wind_Direction
302 302 300 298 293 285 281 277 276 273 273 271 268 264 261 258 254 250 248 246 244 241 241 243 242 241 239 238 240 240 239 238 238 238 238 238 238 240 243 242 246 249 252 255
300 302 304 301 297 293 288 284 281 278 276 275 274 269 265 262 256 250 247 248 245 242 242 244 245 243 241 240 240 241 242 241 241 242 242 241 241 242 244 246 246 250 252 254
300 303 301 301 299 297 295 294 289 286 281 277 277 273 268 265 262 257 253 251 248 246 244 246 245 242 243 243 241 241 241 242 243 243 244 244 245 245 245 248 248 250 252 254
302 303 302 299 297 298 297 298 297 292 287 283 280 279 273 267 264 260 255 251 250 249 247 246 245 243 244 244 245 244 243 242 242 243 246 246 247 248 247 249 251 251 253 257
304 302 304 301 299 297 297 299 300 298 293 290 286 281 277 270 263 261 258 253 254 251 248 247 249 249 247 246 246 247 246 243 243 243 246 247 250 251 251 251 253 254 256 259
306 302 304 303 304 301 298 298 298 299 297 295 293 288 284 277 266 259 257 256 256 256 253 250 250 250 249 248 248 249 248 247 245 246 247 250 252 252 252 254 257 259 260 263
306 305 303 302 302 302 299 301 302 301 298 298 298 293 287 282 272 263 259 256 254 257 257 256 253 253 253 253 250 250 250 247 247 248 249 250 252 253 255 256 259 262 264 266
306 307 306 303 303 304 302 302 303 304 302 299 299 296 293 289 280 271 266 261 260 260 258 256 255 256 256 255 254 253 249 249 249 250 251 253 256 257 258 261 263 265 266 268
305 303 304 304 302 300 299 300 302 304 302 300 300 299 297 296 290 279 273 269 267 265 264 262 257 258 257 256 256 256 253 252 253 252 252 254 256 258 261 263 265 267 267 267
302 302 302 304 300 297 298 299 301 303 303 302 299 298 299 297 295 289 282 276 271 268 267 266 263 262 262 260 257 256 256 254 254 256 257 257 258 259 261 263 266 267 267 269
295 297 299 299 301 300 297 296 297 299 298 298 296 296 298 298 294 290 287 281 275 271 271 269 267 265 265 262 260 259 258 257 257 258 259 259 259 261 262 264 266 268 269 269
290 291 294 294 295 297 296 295 296 297 297 295 294 294 297 296 294 290 288 284 280 274 273 272 270 268 265 263 262 262 261 259 260 261 262 261 261 262 264 266 267 269 270 271
288 288 289 289 290 291 291 292 293 293 294 294 293 293 293 292 293 290 288 285 282 278 276 275 271 268 266 266 265 263 262 261 262 263 264 264 264 265 267 269 270 272 273 274
283 285 286 288 289 289 287 288 290 291 293 294 293 291 290 289 288 287 287 285 282 280 278 275 272 269 269 268 266 264 262 263 263 264 264 265 266 267 268 270 272 274 276 277
281 281 283 284 285 284 284 286 287 288 291 293 293 291 289 288 287 285 284 283 280 279 278 274 271 269 269 268 268 266 265 265 265 266 266 267 268 269 270 272 274 275 276 278
278 279 280 280 281 281 281 283 284 286 287 289 290 289 288 288 287 286 285 283 281 279 277 274 272 270 270 269 269 268 267 267 267 267 268 268 269 271 272 274 275 277 278 279
277 277 278 278 279 280 281 283 283 284 286 287 288 289 287 284 285 284 284 284 283 280 278 276 274 273 272 271 270 270 269 269 269 269 269 270 271 272 274 275 276 277 278 279
276 277 277 278 278 278 282 282 283 284 285 286 287 287 287 286 285 285 285 284 283 281 280 278 276 274 273 272 271 271 271 271 271 271 271 272 273 274 275 276 277 278 279 281
274 275 276 277 278 279 279 281 282 282 282 284 285 286 286 286 286 285 285 284 284 282 280 279 278 275 274 273 272 272 272 272 273 273 273 273 274 275 276 276 277 279 280 280
272 272 273 275 277 278 280 280 281 281 281 282 283 284 285 286 285 284 283 282 282 282 280 279 279 278 277 276 275 274 274 273 273 274 274 274 275 276 277 277 278 279 279 281
271 271 272 274 276 277 279 280 280 281 283 282 283 284 285 285 284 284 283 282 282 281 280 280 279 278 277 277 276 275 275 275 275 276 276 276 277 277 278 278 278 279 280 281
271 271 272 273 275 277 278 279 280 281 282 282 283 284 284 284 284 283 283 282 281 281 280 280 279 279 278 277 277 276 276 276 276 277 277 278 278 278 279 279 280 280 281 282
270 270 271 272 274 276 277 278 279 280 280 281 282 282 283 283 283 283 283 283 283 282 281 281 280 280 279 279 278 278 277 277 277 277 277 278 278 279 279 280 281 281 282 282
268 269 270 271 272 274 275 276 277 278 279 280 280 281 282 283 283 283 283 282 282 282 281 280 280 280 280 280 280 279 279 279 278 277 278 279 279 279 280 280 281 282 282 282
269 270 271 272 273 273 274 275 276 277 277 278 280 281 282 283 284 284 283 282 282 282 282 281 280 280 280 281 281 280 279 279 278 278 279 279 280 280 281 282 283 283 283 284
269 271 272 273 273 273 274 275 275 276 277 278 280 282 283 283 284 285 285 284 284 284 283 282 282 281 281 281 281 280 280 279 279 279 280 280 281 281 282 283 284 284 285 286